[[{"header":{"parameterUnit":"m.s-1","parameterCategory":1,"la1":30.2991,"la2":30.254,"lo1":-89.0895,"lo2":-89.0444,"dy":0.0017,"dx":0.0017,"nx":28,"ny":28,"refTime":"2024-11-30T09:00:00:Z","depth":0,"parameterNumber":2,"parameterNumberName":"U-component_of_WINDS"},"data":[0,0,0,0,0,0,0,0,0,0,0,0,0,0,0,0,0,0,0,0,0,0,0,0,0,0,0,0,0,0,0,0,0,0,0,0,0,0,0,0,0,0,0,0,0,0,0,0,0,0,0,0,0,0,0,0,0,0,-2.1329,-2.133,0,-2.1443,-2.1445,-2.1446,-2.1447,-2.1445,-2.1444,-2.1443,-2.1558,-2.1562,-2.1566,0,0,0,0,0,0,0,0,0,0,0,0,0,-2.1109,-2.1113,-2.1329,-2.133,-2.1332,-2.1443,-2.1445,-2.1446,-2.1447,-2.1445,-2.1444,-2.1442,-2.1556,-2.1562,-2.1567,0,0,0,0,0,0,0,0,0,0,0,0,0,-2.1212,-2.1115,-2.1329,-2.1346,-2.1348,-2.1443,-2.1445,-2.1447,-2.1447,-2.1445,-2.1443,-2.1441,-2.1555,-2.1561,-2.1568,-2.1652,0,0,-2.1588,-2.1591,0,0,0,0,0,0,0,0,-2.1206,-2.122,-2.1342,-2.1345,-2.1348,-2.1429,-2.141,-2.1516,-2.1448,-2.141,-2.1442,-2.144,-2.1516,-2.1526,-2.1552,-2.1658,-2.1663,-2.1588,-2.1592,-2.1595,-2.1597,0,0,0,0,0,0,0,-2.1199,-2.1215,-2.1374,-2.1343,-2.1347,-2.1347,-2.1359,-2.143,-2.1474,-2.1413,-2.1413,-2.1427,-2.1518,-2.1546,-2.1555,-2.1664,-2.1588,-2.1594,-2.1598,-2.1601,-2.1844,-2.1846,0,0,0,0,0,0,-2.1189,-2.1209,-2.137,-2.1377,-2.127,-2.1353,-2.1366,-2.1405,-2.1473,-2.1481,-2.1429,-2.1426,-2.1536,-2.1547,-2.1559,-2.1661,-2.1595,-2.1602,-2.1605,-2.1842,-2.1845,-2.1847,0,0,0,0,0,0,-2.1184,-2.1203,-2.1366,-2.1294,-2.1314,-2.1359,-2.1402,-2.1408,-2.1436,-2.1485,-2.1493,-2.1449,-2.1534,-2.155,-2.1629,-2.1665,-2.1604,-2.1611,-2.1839,-2.1842,-2.1846,-2.1868,0,0,0,0,0,0,-2.1178,-2.1202,-2.1234,-2.1294,-2.1318,-2.1434,-2.1404,-2.1412,-2.1448,-2.1446,-2.1507,-2.1514,-2.1534,-2.1619,-2.1636,-2.1674,-2.1616,-2.1835,-2.184,-2.1845,-2.1864,-2.1872,-2.1878,0,0,0,0,0,-2.117,-2.1236,-2.1236,-2.1256,-2.136,-2.1436,-2.145,-2.1472,-2.1451,-2.1484,-2.1515,-2.1512,-2.1659,-2.1627,-2.1646,-2.1686,-2.1833,-2.1839,-2.1844,-2.1861,-2.187,-2.1878,0,0,0,0,0,0,-2.1178,-2.1244,-2.1245,-2.1332,-2.1379,-2.1436,-2.1479,-2.1481,-2.1534,-2.153,-2.1554,-2.1568,-2.1646,-2.1675,-2.1638,-2.1771,-2.1744,-2.1753,-2.175,-2.1759,-2.1766,-2.1757,-2.1621,0,0,0,0,0,-2.119,-2.1247,-2.1302,-2.1373,-2.1397,-2.1434,-2.1468,-2.1481,-2.1529,-2.1549,-2.1586,-2.1633,-2.169,-2.1726,-2.1781,-2.1869,-2.1881,-2.1906,-2.1913,-2.1919,-2.1926,-2.1973,-2.1984,-2.1866,-2.1866,-2.1865,0,0,-2.1216,-2.1259,-2.1293,-2.1376,-2.1414,-2.1471,-2.145,-2.1512,-2.1555,-2.1558,-2.1635,-2.1664,-2.1718,-2.1802,-2.184,-2.1827,-2.1962,-2.1926,-2.193,-2.1934,-2.198,-2.1991,-2.2001,-2.1869,-2.1869,-2.1868,0,0,-2.1291,-2.133,-2.1393,-2.1431,-2.1489,-2.1513,-2.1529,-2.1586,-2.1606,-2.1684,-2.1687,-2.1738,-2.1836,-2.1874,-2.1906,-2.1996,-2.1995,-2.2014,-2.2051,-2.2096,-2.2106,-2.2114,-2.2144,-2.2155,-2.2021,-2.2021,-2.2021,0,-2.1314,-2.1402,-2.1425,-2.1487,-2.1523,-2.153,-2.1594,-2.163,-2.1702,-2.1726,-2.1712,-2.1834,-2.1871,-2.1963,-2.1985,-2.2012,-2.2029,-2.2006,-2.2103,-2.2111,-2.2119,-2.2149,-2.216,-2.2023,-2.2023,-2.2023,-2.2022,0,-2.1427,-2.1488,-2.1532,-2.1602,-2.1644,-2.1706,-2.1739,-2.1778,-2.1787,-2.1813,-2.1892,-2.1937,-2.2,-2.2024,-2.2034,-2.2117,-2.2107,-2.2098,-2.207,-2.2132,-2.216,-2.2171,-2.2025,-2.2025,-2.2024,-2.2024,0,0,-2.1508,-2.1592,-2.1607,-2.1639,-2.1703,-2.175,-2.1813,-2.1876,-2.1908,-2.1959,-2.2011,-2.2094,-2.2085,-2.2122,-2.2136,-2.2176,-2.2243,-2.2162,-2.2163,-2.2173,-2.2336,-2.2341,-2.2354,-2.2244,-2.2246,-2.2248,-2.2331,0,-2.1589,-2.1701,-2.1724,-2.1821,-2.1877,-2.1884,-2.1939,-2.1984,-2.201,-2.2061,-2.209,-2.2147,-2.2133,-2.2154,-2.2195,-2.2226,-2.2276,-2.2221,-2.2291,-2.2293,-2.2275,-2.2369,-2.2375,-2.245,-2.2342,-2.2344,-2.2345,0,-2.1697,-2.175,-2.1852,-2.1909,-2.1933,-2.1982,-2.2041,-2.209,-2.2141,-2.2157,-2.2198,-2.2209,-2.2274,-2.2245,-2.2334,-2.2296,-2.2327,-2.2346,-2.235,-2.2355,-2.2321,-2.2375,-2.2475,-2.2486,-2.2363,-2.2362,-2.236,0,-2.1743,-2.184,-2.1914,-2.1941,-2.2009,-2.2043,-2.2073,-2.2123,-2.2159,-2.2211,-2.2234,-2.2294,-2.2325,-2.237,-2.2396,-2.2373,-2.2483,-2.2456,-2.2496,-2.2496,-2.2517,-2.2515,-2.2622,-2.2541,-2.254,-2.254,-2.254,0,-2.1829,-2.189,-2.1935,-2.198,-2.205,-2.2076,-2.2144,-2.2174,-2.2218,-2.2268,-2.2279,-2.2326,-2.2358,-2.2409,-2.243,-2.25,-2.2514,-2.2528,-2.2532,-2.2526,-2.2524,-2.2544,-2.2539,-2.2543,-2.2543,-2.2542,-2.2541,0,-2.1891,-2.1924,-2.2004,-2.2063,-2.2079,-2.2128,-2.2178,-2.2221,-2.2248,-2.2312,-2.2328,-2.237,-2.2431,-2.2462,-2.2538,-2.2551,-2.2629,-2.2632,-2.2612,-2.2613,-2.2651,-2.2646,-2.2773,-2.279,-2.27,-2.27,-2.2701,0,-2.1942,-2.199,-2.2054,-2.2089,-2.212,-2.2176,-2.2213,-2.2242,-2.228,-2.2342,-2.2378,-2.244,-2.249,-2.2587,-2.2624,-2.2682,-2.2684,-2.2725,-2.2693,-2.2684,-2.2682,-2.2678,-2.2682,-2.2729,-2.273,-2.2731,-2.2731,0,-2.2029,-2.2043,-2.2097,-2.2156,-2.2201,-2.2249,-2.2296,-2.2324,-2.236,-2.2402,-2.2465,-2.2504,-2.2582,-2.2642,-2.2703,-2.2734,-2.2738,-2.2742,-2.2754,-2.2746,-2.2732,-2.2738,-2.2625,-2.2738,-2.2737,-2.2737,-2.2736,-2.2736,-2.2086,-2.2129,-2.218,-2.2239,-2.2278,-2.2322,-2.2366,-2.2399,-2.2452,-2.2517,-2.2531,-2.2597,-2.2647,-2.273,-2.2762,-2.2813,-2.2804,-2.2822,-2.2826,-2.283,-2.2831,-2.2726,-2.2825,-2.2825,-2.2825,-2.2825,-2.2824,0,-2.2172,-2.2206,-2.226,-2.2326,-2.2373,-2.2375,-2.2427,-2.2465,-2.2524,-2.257,-2.262,-2.2692,-2.2751,-2.2793,-2.2853,-2.2886,-2.2889,-2.29,-2.2897,-2.2904,-2.2836,-2.2819,-2.2896,-2.2896,-2.2896,-2.2896,-2.2896,-2.2896,-2.2221,-2.2293,-2.2313,-2.2404,-2.2437,-2.2502,-2.2532,-2.2573,-2.261,-2.2689,-2.2739,-2.2766,-2.2811,-2.2874,-2.2928,-2.2939,-2.2959,-2.297,-2.2981,-2.2916,-2.2908,-2.2901,-2.2885,-2.2975,-2.2975,-2.3043,-2.3044,-2.3045]},{"header":{"parameterUnit":"m.s-1","parameterCategory":1,"la1":30.2991,"la2":30.254,"lo1":-89.0895,"lo2":-89.0444,"dy":0.0017,"dx":0.0017,"nx":28,"ny":28,"refTime":"2024-11-30T09:00:00:Z","depth":0,"parameterNumber":3,"parameterNumberName":"V-component_of_WINDS"},"data":[0,0,0,0,0,0,0,0,0,0,0,0,0,0,0,0,0,0,0,0,0,0,0,0,0,0,0,0,0,0,0,0,0,0,0,0,0,0,0,0,0,0,0,0,0,0,0,0,0,0,0,0,0,0,0,0,0,0,-1.3364,-1.3364,0,-1.3337,-1.3337,-1.3337,-1.3376,-1.3377,-1.3378,-1.338,-1.3351,-1.3349,-1.3347,0,0,0,0,0,0,0,0,0,0,0,0,0,-1.3449,-1.3447,-1.3364,-1.3364,-1.3364,-1.3337,-1.3337,-1.3336,-1.3375,-1.3377,-1.3379,-1.338,-1.3352,-1.3349,-1.3347,0,0,0,0,0,0,0,0,0,0,0,0,0,-1.3416,-1.3447,-1.3364,-1.338,-1.3381,-1.3337,-1.3337,-1.3336,-1.3375,-1.3377,-1.3379,-1.3381,-1.3352,-1.3349,-1.3346,-1.3286,0,0,-1.3337,-1.3336,0,0,0,0,0,0,0,0,-1.3418,-1.3413,-1.3378,-1.3379,-1.338,-1.3362,-1.3356,-1.3319,-1.3375,-1.3377,-1.338,-1.3382,-1.3353,-1.335,-1.334,-1.3284,-1.3283,-1.3337,-1.3335,-1.3333,-1.3333,0,0,0,0,0,0,0,-1.342,-1.3414,-1.3354,-1.3378,-1.3379,-1.3388,-1.3386,-1.3349,-1.3354,-1.3377,-1.338,-1.3376,-1.3354,-1.3343,-1.334,-1.3283,-1.3337,-1.3334,-1.3332,-1.3331,-1.3174,-1.3172,0,0,0,0,0,0,-1.3421,-1.3416,-1.3355,-1.3353,-1.3404,-1.3385,-1.3382,-1.3366,-1.3354,-1.3355,-1.3375,-1.3378,-1.3347,-1.3343,-1.3339,-1.3265,-1.3333,-1.3331,-1.3329,-1.3176,-1.3174,-1.3171,0,0,0,0,0,0,-1.3422,-1.3415,-1.3356,-1.3385,-1.3378,-1.3381,-1.3362,-1.3364,-1.3353,-1.3352,-1.3353,-1.3363,-1.3349,-1.3343,-1.3298,-1.3265,-1.3329,-1.3326,-1.3179,-1.3175,-1.3172,-1.3119,0,0,0,0,0,0,-1.3425,-1.3415,-1.3392,-1.3384,-1.3377,-1.3315,-1.336,-1.3362,-1.3348,-1.3352,-1.3341,-1.3342,-1.335,-1.3303,-1.3295,-1.3262,-1.3324,-1.3182,-1.3177,-1.3173,-1.3124,-1.3114,-1.3106,0,0,0,0,0,-1.3427,-1.3379,-1.3391,-1.3383,-1.3348,-1.3314,-1.3309,-1.332,-1.3345,-1.3322,-1.3321,-1.3342,-1.327,-1.3298,-1.329,-1.3255,-1.3184,-1.3179,-1.3174,-1.3128,-1.3116,-1.3106,0,0,0,0,0,0,-1.3383,-1.3378,-1.3392,-1.3339,-1.3326,-1.332,-1.3291,-1.3308,-1.3287,-1.3292,-1.3307,-1.3304,-1.3255,-1.3251,-1.3282,-1.3195,-1.3231,-1.3224,-1.3199,-1.3188,-1.3179,-1.318,-1.3321,0,0,0,0,0,-1.3367,-1.3339,-1.3337,-1.329,-1.3283,-1.3288,-1.3274,-1.3283,-1.3271,-1.3265,-1.3262,-1.3248,-1.3223,-1.3206,-1.3182,-1.3124,-1.3121,-1.3096,-1.3087,-1.308,-1.3073,-1.304,-1.3028,-1.3154,-1.3154,-1.3154,0,0,-1.3333,-1.3327,-1.3309,-1.3281,-1.3272,-1.3243,-1.3283,-1.3251,-1.3229,-1.3261,-1.3217,-1.3214,-1.32,-1.3148,-1.3125,-1.3143,-1.3038,-1.3073,-1.3068,-1.3064,-1.3034,-1.3022,-1.3011,-1.315,-1.3151,-1.3152,0,0,-1.3256,-1.325,-1.321,-1.32,-1.3187,-1.319,-1.3181,-1.3172,-1.3171,-1.3128,-1.3151,-1.3125,-1.3081,-1.307,-1.3058,-1.2977,-1.2995,-1.2969,-1.2922,-1.289,-1.288,-1.2871,-1.284,-1.2829,-1.2963,-1.2963,-1.2963,0,-1.3216,-1.3173,-1.3187,-1.3152,-1.3138,-1.3166,-1.3125,-1.3115,-1.3095,-1.3084,-1.3105,-1.305,-1.3043,-1.2987,-1.2967,-1.2958,-1.2946,-1.2969,-1.288,-1.2872,-1.2864,-1.2834,-1.2823,-1.296,-1.296,-1.296,-1.2961,0,-1.3123,-1.3093,-1.3062,-1.3041,-1.3024,-1.2986,-1.2994,-1.2975,-1.2987,-1.2988,-1.2943,-1.2936,-1.291,-1.2898,-1.2909,-1.2844,-1.2855,-1.2878,-1.2915,-1.2848,-1.2821,-1.281,-1.2955,-1.2956,-1.2957,-1.2958,0,0,-1.3016,-1.3003,-1.2991,-1.2981,-1.2969,-1.2945,-1.2909,-1.2884,-1.2867,-1.2852,-1.2821,-1.2783,-1.2804,-1.2791,-1.2801,-1.2773,-1.2706,-1.2799,-1.2799,-1.278,-1.2632,-1.2613,-1.26,-1.2719,-1.2717,-1.2715,-1.2632,0,-1.2937,-1.2874,-1.2885,-1.2823,-1.2794,-1.282,-1.2788,-1.2776,-1.2777,-1.2752,-1.2753,-1.2725,-1.2755,-1.2747,-1.2721,-1.272,-1.2676,-1.2727,-1.2688,-1.2687,-1.2689,-1.2586,-1.2566,-1.2488,-1.2622,-1.262,-1.2619,0,-1.2837,-1.2818,-1.2753,-1.2743,-1.2732,-1.2702,-1.268,-1.2657,-1.2644,-1.2646,-1.2632,-1.2647,-1.2609,-1.2648,-1.2596,-1.263,-1.2615,-1.2612,-1.261,-1.2605,-1.2647,-1.2576,-1.2464,-1.2451,-1.2603,-1.2604,-1.2605,0,-1.2762,-1.2721,-1.2676,-1.2667,-1.2656,-1.2634,-1.2628,-1.2618,-1.2602,-1.2583,-1.2573,-1.255,-1.2536,-1.2518,-1.2526,-1.2554,-1.2472,-1.2512,-1.2471,-1.2471,-1.2451,-1.2451,-1.2332,-1.2445,-1.2445,-1.2446,-1.2446,0,-1.2672,-1.2631,-1.2642,-1.2614,-1.2568,-1.2582,-1.2536,-1.2533,-1.2523,-1.2495,-1.2517,-1.249,-1.2503,-1.2477,-1.2483,-1.2438,-1.2433,-1.2433,-1.2434,-1.2429,-1.2429,-1.2418,-1.2423,-1.2442,-1.2443,-1.2444,-1.2444,0,-1.258,-1.2586,-1.2539,-1.2532,-1.2529,-1.2495,-1.2489,-1.2463,-1.2465,-1.2429,-1.2421,-1.2425,-1.2395,-1.2402,-1.2369,-1.2373,-1.2316,-1.2326,-1.232,-1.2321,-1.228,-1.2282,-1.2147,-1.213,-1.2256,-1.2255,-1.2254,0,-1.2521,-1.2489,-1.2479,-1.2462,-1.2454,-1.2426,-1.241,-1.2422,-1.2405,-1.2387,-1.2362,-1.2335,-1.2313,-1.2264,-1.2263,-1.2238,-1.2246,-1.22,-1.2242,-1.2238,-1.2243,-1.2243,-1.2239,-1.2191,-1.219,-1.2189,-1.2188,0,-1.2415,-1.2419,-1.2395,-1.2371,-1.2351,-1.2334,-1.2318,-1.2302,-1.2314,-1.2293,-1.2262,-1.2245,-1.2212,-1.2183,-1.216,-1.2154,-1.2172,-1.2175,-1.2164,-1.2157,-1.2154,-1.2153,-1.2295,-1.2177,-1.2178,-1.2179,-1.218,-1.218,-1.2336,-1.2308,-1.2296,-1.2268,-1.2258,-1.2243,-1.2217,-1.2216,-1.2191,-1.2164,-1.2174,-1.2138,-1.2126,-1.2097,-1.2088,-1.206,-1.2077,-1.2062,-1.2058,-1.2053,-1.2047,-1.216,-1.2057,-1.2057,-1.2057,-1.2057,-1.2058,0,-1.2228,-1.2222,-1.2196,-1.2173,-1.2151,-1.2171,-1.2155,-1.2134,-1.2103,-1.209,-1.2068,-1.2033,-1.2005,-1.2003,-1.1976,-1.1955,-1.1962,-1.1947,-1.1948,-1.1946,-1.2034,-1.2045,-1.1942,-1.1942,-1.1942,-1.1942,-1.1942,-1.1942,-1.217,-1.2124,-1.2127,-1.2075,-1.207,-1.2035,-1.2024,-1.2009,-1.1999,-1.1958,-1.1935,-1.1934,-1.1925,-1.1898,-1.1874,-1.1874,-1.1862,-1.1844,-1.1846,-1.1928,-1.194,-1.1951,-1.1961,-1.1842,-1.1841,-1.176,-1.1759,-1.1759]}]]